Voltar ao catálogo

STARLINK-31863

AtivoComunicaçõesVLEO
NORAD 59789·PAYLOAD·🇺🇸 United States

Lançado May 18, 2024 de Cape Canaveral Space Force Station

Loading…

Próximas Passagens (próximas 24 horas)

TLE

AtualizadoSource: CelesTrak SupGP

Época: Sep 15, 2026, 02:44 UTC

1 59789C 24093H   26258.11437500 -.00043872  00000+0 -15890-2 0  2588
2 59789  43.0027 218.8492 0001276 270.1494 273.0909 15.27600256    18

Acompanhe STARLINK-31863 em tempo real com AllMySat

Download on the App Store